SCP
4 4 5 5 4 4 3 3 2 2 2 2 2 1 1 1 1 1 1 1 1 1 0 0 0 0 0 1 1 1 1 1 1 1 1 1 1 1 1 1 1 1 1
4 4 4 4 3 3 3 2 2 2 2 2 2 2 1 1 1 1 1 1 1 1 0 0 0 0 0 0 1 1 1 1 1 1 1 1 1 1 1 1 1 1 1
3 3 3 2 2 2 2 2 2 2 2 2 2 1 1 1 1 1 1 1 1 1 0 0 0 0 0 0 0 0 0 0 0 1 1 1 1 1 1 1 1 1 1
2 2 2 2 1 1 1 2 3 3 2 2 1 1 1 1 1 2 2 1 1 0 0 0 0 0 0 0 0 0 0 0 0 0 0 0 0 0 1 1 1 1 1
1 1 1 1 1 1 2 2 3 3 3 2 1 1 1 1 1 2 2 1 1 1 0 0 0 0 0 0 0 0 0 0 0 0 0 0 0 0 0 0 1 1 1
1 1 1 1 1 1 2 3 4 4 3 2 2 2 1 1 2 1 1 1 1 1 0 0 0 0 0 0 0 0 0 0 0 0 0 0 0 0 0 0 0 1 1
1 1 1 1 1 2 2 3 4 4 3 2 2 2 1 1 1 1 1 1 0 0 0 0 0 0 0 0 0 0 0 0 0 0 0 0 0 0 0 0 0 0 0
1 1 1 1 2 2 2 3 3 3 3 2 2 2 1 1 1 1 0 0 0 0 0 0 0 0 0 0 0 0 0 0 0 0 0 0 0 0 0 0 0 0 0
1 1 1 1 2 2 2 3 3 3 3 2 2 1 1 1 0 0 0 0 0 0 0 0 0 0 1 1 1 1 0 0 0 0 0 0 0 0 0 0 0 0 0
1 1 1 1 1 2 2 2 3 3 2 2 1 1 1 0 0 0 0 0 0 0 0 0 0 0 1 1 1 1 1 1 1 0 0 0 0 0 0 0 0 0 0
1 1 1 1 1 2 2 2 3 3 2 1 1 0 0 0 0 0 0 0 1 1 1 0 0 0 0 0 1 1 0 0 0 0 0 0 0 0 0 0 0 0 0
1 1 1 2 2 2 1 1 2 2 1 1 1 0 0 0 0 0 0 1 1 1 1 1 0 0 0 0 0 0 0 0 0 0 0 0 0 0 0 0 0 0 0
1 1 2 2 2 2 1 1 1 1 1 1 1 1 1 1 1 1 1 1 1 1 1 1 1 1 1 0 0 0 0 0 0 0 0 0 0 0 0 0 0 0 0
1 2 2 3 3 2 1 1 1 0 0 0 1 1 1 1 1 1 1 1 1 1 1 1 1 1 1 0 0 0 0 0 0 0 0 0 0 0 0 0 0 0 0
1 2 3 3 3 2 1 1 1 1 0 0 1 1 2 2 2 2 1 1 1 1 1 1 1 1 0 0 0 0 0 0 0 0 0 0 0 0 0 0 0 0 0
1 2 3 3 3 2 2 1 1 1 1 1 1 1 1 2 2 2 2 2 1 1 1 1 1 1 0 0 0 0 0 0 0 0 0 0 0 0 0 0 0 0 0
1 2 3 3 3 2 2 2 2 2 1 1 1 1 1 2 2 2 2 2 2 2 2 2 1 1 1 0 0 0 0 0 0 0 0 0 0 0 0 0 0 0 0
1 2 2 3 3 3 3 3 2 2 2 1 1 2 2 2 3 3 3 3 2 2 2 2 1 1 1 0 0 0 0 0 0 0 0 1 0 0 0 0 0 0 0
1 1 2 2 3 3 3 3 3 3 2 2 2 2 3 3 4 4 3 3 2 2 2 2 1 1 1 0 0 0 0 0 0 0 0 1 0 0 0 0 0 0 1
1 1 1 2 3 5 5 4 4 3 3 2 2 3 4 5 5 4 3 3 2 2 2 2 2 2 1 1 0 0 0 0 0 1 0 0 0 0 0 0 0 0 0
2 2 2 3 4 6 6 6 5 5 4 3 3 4 5 5 5 5 4 3 3 2 2 2 2 2 1 1 0 0 0 0 1 1 1 0 0 0 0 0 0 0 0
2 3 3 4 5 6 7 8 8 7 5 5 4 4 5 5 5 5 5 4 3 2 2 2 2 2 2 1 1 0 0 0 0 0 0 0 0 0 0 0 0 0 0
3 3 4 5 6 7 8 9 9 8 7 6 6 5 5 5 5 5 4 3 3 2 2 2 2 2 2 1 1 0 0 0 0 0 0 0 0 0 0 0 0 0 0
4 4 5 5 6 7 8 9 9 8 7 7 7 6 5 5 6 5 3 3 3 2 2 2 2 2 2 1 1 0 0 0 0 0 0 0 0 0 0 0 0 0 0
5 5 5 5 6 7 8 8 8 8 8 7 7 5 4 5 5 4 3 3 2 2 2 1 1 1 1 1 0 0 0 0 0 0 0 0 0 0 0 0 0 0 0
5 5 5 5 5 6 8 8 8 9 8 7 6 5 4 4 4 4 3 2 2 1 1 1 1 1 0 0 0 0 0 0 0 0 0 0 0 0 0 0 0 0 0
Wind_Speed
10 10 10 11 11 9 7 6 6 4 2 1 0 1 1 2 1 1 4 2 2 3 3 3 4 4 3 4 4 4 5 4 3 3 4 5 7 6 5 5 4 4 5
10 9 9 10 10 9 7 6 6 5 3 2 1 1 1 2 2 1 2 2 2 3 4 4 4 4 4 4 3 3 3 5 4 3 4 5 5 3 3 3 3 3 2
12 11 9 9 10 10 9 8 7 6 4 1 1 1 1 2 2 1 1 3 2 2 2 3 3 4 5 4 4 4 4 4 4 4 2 3 3 5 4 3 1 2 2
12 11 10 9 9 9 9 6 6 5 4 2 1 2 2 2 2 1 1 2 1 2 1 2 2 3 4 5 5 4 4 5 4 4 3 2 2 2 4 4 3 2 2
12 12 11 10 9 9 8 7 6 5 3 2 2 2 3 3 3 3 3 2 3 3 3 2 1 2 4 4 4 4 4 4 4 4 4 4 3 4 4 5 5 4 3
12 11 11 10 8 7 7 8 8 6 4 3 2 1 2 2 3 4 4 3 2 2 2 1 1 2 3 3 4 4 5 4 4 4 4 4 4 4 3 4 4 4 4
12 11 10 10 9 8 7 8 9 7 5 4 2 1 1 2 4 5 4 2 3 2 2 2 1 3 3 4 4 4 5 5 5 4 4 4 4 4 4 4 4 5 5
12 11 11 9 9 8 7 7 8 6 5 3 2 1 1 3 3 2 3 3 3 3 2 2 2 3 4 5 4 4 5 5 4 6 5 4 4 4 4 4 4 5 5
11 10 10 8 8 7 7 7 7 6 4 3 3 3 3 3 3 3 4 4 2 4 3 3 4 4 4 4 4 4 5 5 5 5 5 4 4 4 4 4 3 4 5
11 10 10 9 9 8 7 7 7 6 4 3 3 3 3 3 3 4 4 3 4 4 4 5 5 5 5 5 5 5 5 5 5 5 6 5 4 4 4 4 4 4 5
11 10 9 9 9 9 9 7 7 6 4 4 3 1 1 2 3 3 4 4 4 4 5 5 5 5 5 5 5 6 6 6 6 6 6 6 6 4 4 4 4 4 4
10 10 11 10 9 9 9 8 7 7 6 5 4 4 4 4 4 4 3 3 4 4 5 5 5 6 6 5 5 6 6 6 6 6 6 6 6 6 5 5 5 5 5
8 9 10 9 8 7 7 8 8 7 6 6 6 5 5 4 4 3 3 4 4 5 5 5 5 6 6 6 6 6 6 6 6 6 7 6 6 6 5 5 5 5 7
7 7 8 8 7 6 6 5 5 5 5 5 5 5 4 4 3 3 3 4 4 5 5 5 6 6 6 7 7 6 6 6 6 6 7 7 7 7 7 6 6 6 6
9 8 8 8 7 6 6 6 5 4 4 4 4 4 4 4 3 4 4 4 4 6 5 5 5 6 7 7 4 4 6 5 6 6 7 8 9 9 8 8 6 5 5
8 9 9 10 9 8 7 7 6 6 5 5 4 4 3 3 4 4 5 5 4 5 5 6 6 7 8 1 1 3 5 6 7 7 7 8 9 11 14 15 13 10 8
8 9 10 10 10 9 8 7 7 6 6 6 5 5 5 5 4 5 4 4 4 5 5 5 6 7 7 6 6 7 5 7 7 8 7 9 11 8 6 8 12 14 16
7 8 9 10 10 10 10 8 8 7 7 7 7 6 5 5 4 4 4 4 4 4 5 6 6 7 8 8 8 9 7 8 9 9 9 9 9 10 7 7 7 7 9
5 6 8 10 11 11 11 10 9 9 8 8 7 7 6 5 4 4 4 4 4 5 6 7 7 7 7 7 9 9 6 7 9 10 10 9 8 8 8 6 7 7 7
3 5 7 7 9 10 10 11 10 9 9 8 7 6 5 4 4 4 4 5 4 6 7 7 6 7 7 7 10 11 6 7 7 7 7 10 9 7 7 6 6 8 7
2 4 5 5 7 8 9 9 9 9 8 7 6 5 5 5 5 6 5 5 6 7 7 7 7 8 9 10 11 13 7 7 7 6 6 4 2 4 7 7 7 9 7
1 2 3 4 6 7 7 7 7 5 5 5 5 5 5 6 6 5 5 5 6 7 8 8 9 8 8 8 10 14 15 11 7 7 6 3 2 4 7 8 10 11 8
1 1 2 3 5 6 6 7 6 5 5 5 5 5 5 5 5 5 7 7 7 8 8 7 6 4 3 4 9 13 15 14 9 8 9 9 10 9 9 14 15 11 8
5 3 1 1 3 4 6 6 5 6 6 6 6 6 6 7 7 7 7 8 7 7 5 5 4 4 3 2 3 4 7 10 10 9 10 12 14 13 12 11 9 9 9
9 8 6 3 1 1 2 4 5 5 6 7 6 7 8 9 8 8 8 9 7 7 6 5 5 5 5 1 2 2 4 4 3 4 6 8 8 7 7 7 8 7 8
9 9 9 7 5 3 1 2 3 4 5 6 7 7 8 8 8 7 8 14 14 13 14 13 10 7 8 8 8 8 7 6 4 4 8 9 8 8 7 7 7 7 7
Wind_Direction
143 143 146 144 140 139 141 145 139 135 158 123 9 14 29 359 357 94 104 72 28 16 313 326 349 321 331 345 326 330 315 300 277 283 290 278 260 239 228 229 238 232 225
148 148 157 153 150 152 154 155 158 163 185 145 138 199 289 288 274 53 117 103 51 359 329 26 333 347 338 306 308 309 305 309 319 320 311 306 296 326 261 221 214 228 236
157 161 169 167 164 167 172 177 172 164 180 180 238 284 256 269 298 24 69 75 32 343 336 333 336 341 319 329 339 319 319 313 315 308 302 312 335 338 319 323 275 214 231
160 167 177 179 179 175 176 172 161 162 164 191 262 299 299 308 329 348 48 50 310 269 286 312 327 331 315 315 317 5 339 319 310 312 305 282 310 307 319 321 317 277 243
170 174 180 183 184 178 169 164 155 154 164 199 237 269 312 338 357 3 345 325 275 235 221 205 275 315 296 314 332 325 318 312 308 316 319 310 288 249 259 293 310 308 286
176 178 184 178 179 176 169 160 149 156 168 194 232 249 305 329 327 319 304 295 289 253 184 172 97 303 304 328 320 310 299 293 302 305 304 305 300 295 287 286 294 297 299
178 180 185 177 176 180 170 153 147 157 170 192 204 236 334 317 272 259 276 304 309 325 70 41 355 298 302 293 282 287 285 288 289 287 279 289 297 298 296 293 295 299 299
182 183 183 179 174 174 167 156 148 152 165 186 175 157 272 276 287 359 354 322 303 312 341 297 273 271 274 283 294 293 282 277 279 278 279 280 279 283 287 286 291 294 293
181 180 174 171 164 163 156 147 136 145 166 187 162 190 214 245 295 315 280 276 305 303 323 326 302 285 276 271 275 272 278 281 276 276 279 269 275 277 273 279 277 275 285
181 176 168 166 158 152 138 134 137 151 167 192 206 219 190 217 230 255 285 301 295 293 296 286 285 283 279 270 262 267 268 270 267 263 267 272 269 277 286 281 277 269 269
182 173 165 157 153 152 146 147 148 157 176 201 200 240 254 267 266 254 256 265 275 284 280 276 276 275 273 267 259 258 263 263 262 266 267 262 261 263 273 278 275 271 267
176 166 158 151 156 162 160 159 164 176 183 189 186 202 222 238 250 263 271 280 280 281 284 283 283 283 283 281 273 268 271 270 271 269 268 269 269 261 256 262 268 269 268
166 161 151 152 163 169 166 167 176 186 184 181 185 200 214 230 236 254 268 274 280 281 283 285 285 285 286 281 273 266 265 265 268 271 271 270 270 270 264 264 267 273 275
161 161 147 151 160 161 158 169 185 182 184 184 192 202 213 231 242 252 259 267 275 278 275 275 279 281 282 278 273 270 266 264 265 266 267 266 264 263 262 264 257 261 269
165 166 155 153 159 162 164 175 185 181 186 188 206 211 213 221 233 244 252 261 267 277 280 284 282 281 278 277 294 294 287 292 291 283 275 269 266 261 257 261 261 269 271
177 176 170 167 172 176 179 182 187 184 176 194 219 221 220 233 240 244 246 249 257 269 273 274 280 281 283 313 291 281 298 295 288 283 280 279 270 257 245 243 246 248 254
187 181 178 175 174 179 182 186 185 184 183 192 212 220 219 230 237 253 263 270 274 274 272 273 275 276 277 264 247 244 265 277 276 276 276 278 279 289 275 254 246 246 246
192 182 179 174 175 179 182 186 185 185 193 199 209 215 219 232 235 243 256 262 267 271 274 272 273 271 273 259 239 235 248 267 268 266 264 263 265 271 272 274 266 256 251
184 173 182 183 177 181 179 180 191 189 198 205 207 212 217 226 234 247 255 262 265 268 270 271 267 267 267 249 232 222 253 264 269 266 266 262 260 257 248 251 260 265 265
175 175 187 183 170 174 173 178 193 196 203 209 204 205 206 218 233 243 251 259 261 266 269 268 267 270 272 256 229 210 243 265 272 274 270 267 261 250 230 239 255 264 269
184 178 182 180 169 166 169 183 196 202 203 203 199 201 204 212 224 233 235 243 256 263 267 273 271 263 258 253 232 213 230 254 272 282 290 299 293 237 233 238 250 260 276
216 197 179 177 160 162 172 190 204 204 199 199 203 207 211 230 238 227 233 242 253 262 261 259 258 255 247 236 222 212 219 238 260 272 280 291 227 247 248 245 251 256 264
331 243 187 175 161 162 174 199 204 200 204 205 212 218 222 224 233 240 244 246 245 250 257 260 262 264 254 217 209 211 221 230 241 262 279 289 273 261 254 248 249 249 247
6 -0 357 179 165 172 189 201 196 194 204 213 218 222 228 233 230 231 238 245 249 252 256 268 280 282 275 246 183 198 220 232 239 255 270 268 259 252 254 260 247 233 237
15 11 6 359 8 180 199 208 201 198 212 222 228 233 240 245 241 232 233 239 244 246 248 262 273 280 282 219 165 261 281 295 330 315 285 278 273 262 250 247 245 239 232
18 14 6 0 355 346 280 246 222 217 227 238 240 245 248 249 246 241 241 231 231 234 224 225 235 252 253 251 242 243 249 257 262 273 271 273 273 272 267 262 259 248 240